Time,TemperatureF,DewpointF,PressureIn,WindDirection,WindDirectionDegrees,WindSpeedMPH,WindSpeedGustMPH,Humidity,HourlyPrecipIn,Conditions,Clouds,dailyrainin,SoftwareType,DateUTC
2013-03-15 00:10:00,37.6,32.0,30.20,WSW,237,0.0,0.0,81,0.00,,,0.00,weatherlink.com 1.10,2013-03-15 04:10:00,
2013-03-15 00:25:00,37.5,33.0,30.20,WSW,237,0.0,0.0,84,0.00,,,0.00,weatherlink.com 1.10,2013-03-15 04:25:00,
2013-03-15 00:40:00,37.5,33.0,30.20,WSW,239,0.0,0.0,82,0.00,,,0.00,weatherlink.com 1.10,2013-03-15 04:40:00,
2013-03-15 00:55:00,37.0,32.0,30.20,WSW,239,0.0,0.0,83,0.00,,,0.00,weatherlink.com 1.10,2013-03-15 04:55:00,
2013-03-15 01:10:00,36.1,32.0,30.20,WSW,239,0.0,0.0,85,0.00,,,0.00,weatherlink.com 1.10,2013-03-15 05:10:00,
2013-03-15 01:25:00,35.8,32.0,30.20,WSW,239,0.0,0.0,86,0.00,,,0.00,weatherlink.com 1.10,2013-03-15 05:25:00,
2013-03-15 01:40:00,36.2,32.0,30.20,WSW,237,0.0,0.0,86,0.00,,,0.00,weatherlink.com 1.10,2013-03-15 05:40:00,
2013-03-15 01:55:00,35.6,32.0,30.20,WSW,237,0.0,0.0,86,0.00,,,0.00,weatherlink.com 1.10,2013-03-15 05:55:00,
2013-03-15 02:10:00,35.3,32.0,30.20,WSW,238,0.0,0.0,87,0.00,,,0.00,weatherlink.com 1.10,2013-03-15 06:10:00,
2013-03-15 02:25:00,35.3,32.0,30.20,WSW,237,0.0,0.0,88,0.00,,,0.00,weatherlink.com 1.10,2013-03-15 06:25:00,
2013-03-15 02:40:00,35.3,32.0,30.19,WSW,237,0.0,0.0,88,0.00,,,0.00,weatherlink.com 1.10,2013-03-15 06:40:00,
2013-03-15 02:56:00,35.1,32.0,30.19,WSW,237,0.0,0.0,88,0.00,,,0.00,weatherlink.com 1.10,2013-03-15 06:56:00,
2013-03-15 03:11:00,34.5,32.0,30.19,WSW,237,0.0,0.0,90,0.00,,,0.00,weatherlink.com 1.10,2013-03-15 07:11:00,
2013-03-15 03:26:00,34.5,32.0,30.18,WSW,237,0.0,0.0,89,0.00,,,0.00,weatherlink.com 1.10,2013-03-15 07:26:00,
2013-03-15 03:41:00,34.1,31.0,30.18,WSW,237,0.0,0.0,89,0.00,,,0.00,weatherlink.com 1.10,2013-03-15 07:41:00,
2013-03-15 03:56:00,33.4,31.0,30.18,WSW,237,0.0,0.0,90,0.00,,,0.00,weatherlink.com 1.10,2013-03-15 07:56:00,
2013-03-15 04:11:00,32.8,31.0,30.17,WSW,237,0.0,0.0,91,0.00,,,0.00,weatherlink.com 1.10,2013-03-15 08:11:00,
2013-03-15 04:26:00,33.4,31.0,30.18,WSW,237,0.0,0.0,92,0.00,,,0.00,weatherlink.com 1.10,2013-03-15 08:26:00,
2013-03-15 04:56:00,33.8,32.0,30.18,NNE,33,1.0,2.0,92,0.00,,,0.00,weatherlink.com 1.10,2013-03-15 08:56:00,
2013-03-15 05:26:00,32.8,31.0,30.19,NNE,33,0.0,0.0,92,0.00,,,0.00,weatherlink.com 1.10,2013-03-15 09:26:00,
2013-03-15 05:56:00,32.6,31.0,30.20,NNE,33,0.0,0.0,93,0.00,,,0.00,weatherlink.com 1.10,2013-03-15 09:56:00,
2013-03-15 06:11:00,32.6,31.0,30.20,NNE,33,0.0,0.0,93,0.00,,,0.00,weatherlink.com 1.10,2013-03-15 10:11:00,
2013-03-15 06:26:00,32.0,30.0,30.21,NNE,33,0.0,0.0,93,0.00,,,0.00,weatherlink.com 1.10,2013-03-15 10:26:00,
2013-03-15 06:56:00,31.9,30.0,30.22,NNE,33,0.0,0.0,94,0.00,,,0.00,weatherlink.com 1.10,2013-03-15 10:56:00,
2013-03-15 07:11:00,31.8,31.0,30.21,NNE,33,0.0,0.0,95,0.00,,,0.00,weatherlink.com 1.10,2013-03-15 11:11:00,
2013-03-15 07:26:00,31.5,30.0,30.21,NNE,33,0.0,0.0,95,0.00,,,0.00,weatherlink.com 1.10,2013-03-15 11:26:00,
2013-03-15 07:41:00,31.7,31.0,30.21,NNE,33,0.0,0.0,95,0.00,,,0.00,weatherlink.com 1.10,2013-03-15 11:41:00,
2013-03-15 07:56:00,31.3,30.0,30.21,NNE,31,0.0,0.0,95,0.00,,,0.00,weatherlink.com 1.10,2013-03-15 11:56:00,
2013-03-15 08:12:00,32.2,31.0,30.21,NNE,33,0.0,0.0,96,0.00,,,0.00,weatherlink.com 1.10,2013-03-15 12:12:00,
2013-03-15 08:26:00,34.9,34.0,30.22,NNE,33,0.0,0.0,96,0.00,,,0.00,weatherlink.com 1.10,2013-03-15 12:26:00,
2013-03-15 08:41:00,38.1,36.0,30.22,NNE,33,0.0,0.0,92,0.00,,,0.00,weatherlink.com 1.10,2013-03-15 12:41:00,
2013-03-15 08:56:00,41.4,35.0,30.22,NE,44,2.0,3.0,77,0.00,,,0.00,weatherlink.com 1.10,2013-03-15 12:56:00,
2013-03-15 09:11:00,43.8,33.0,30.22,NE,52,1.0,3.0,66,0.00,,,0.00,weatherlink.com 1.10,2013-03-15 13:11:00,
2013-03-15 09:26:00,45.9,33.0,30.23,ENE,78,1.0,5.0,61,0.00,,,0.00,weatherlink.com 1.10,2013-03-15 13:26:00,
2013-03-15 09:41:00,48.0,31.0,30.23,ENE,62,2.0,3.0,53,0.00,,,0.00,weatherlink.com 1.10,2013-03-15 13:41:00,
2013-03-15 09:57:00,49.1,28.0,30.23,ESE,113,2.0,5.0,44,0.00,,,0.00,weatherlink.com 1.10,2013-03-15 13:57:00,
2013-03-15 10:12:00,50.6,28.0,30.23,East,99,0.0,4.0,42,0.00,,,0.00,weatherlink.com 1.10,2013-03-15 14:12:00,
2013-03-15 10:27:00,51.9,27.0,30.22,SSE,156,2.0,4.0,39,0.00,,,0.00,weatherlink.com 1.10,2013-03-15 14:27:00,
2013-03-15 10:42:00,52.7,26.0,30.22,NE,48,0.0,5.0,35,0.00,,,0.00,weatherlink.com 1.10,2013-03-15 14:42:00,
2013-03-15 10:57:00,53.8,25.0,30.22,SE,125,3.0,3.0,33,0.00,,,0.00,weatherlink.com 1.10,2013-03-15 14:57:00,
2013-03-15 11:27:00,54.8,25.0,30.21,SW,229,0.0,5.0,31,0.00,,,0.00,weatherlink.com 1.10,2013-03-15 15:27:00,
2013-03-15 11:42:00,55.8,27.0,30.20,South,177,1.0,4.0,33,0.00,,,0.00,weatherlink.com 1.10,2013-03-15 15:42:00,
2013-03-15 11:57:00,56.0,26.0,30.20,WSW,251,1.0,6.0,32,0.00,,,0.00,weatherlink.com 1.10,2013-03-15 15:57:00,
2013-03-15 12:12:00,57.1,27.0,30.19,East,99,3.0,5.0,31,0.00,,,0.00,weatherlink.com 1.10,2013-03-15 16:12:00,
2013-03-15 12:27:00,57.3,28.0,30.19,WSW,244,1.0,6.0,33,0.00,,,0.00,weatherlink.com 1.10,2013-03-15 16:27:00,
2013-03-15 12:42:00,57.1,27.0,30.18,SE,125,2.0,8.0,32,0.00,,,0.00,weatherlink.com 1.10,2013-03-15 16:42:00,
2013-03-15 12:57:00,56.6,30.0,30.17,South,174,1.0,8.0,36,0.00,,,0.00,weatherlink.com 1.10,2013-03-15 16:57:00,
2013-03-15 13:12:00,57.5,30.0,30.16,SSE,167,2.0,7.0,35,0.00,,,0.00,weatherlink.com 1.10,2013-03-15 17:12:00,
2013-03-15 13:27:00,57.4,30.0,30.15,SE,133,4.0,9.0,36,0.00,,,0.00,weatherlink.com 1.10,2013-03-15 17:27:00,
2013-03-15 13:42:00,58.7,34.0,30.14,SSW,194,3.0,6.0,39,0.00,,,0.00,weatherlink.com 1.10,2013-03-15 17:42:00,
2013-03-15 13:57:00,57.6,35.0,30.13,SSW,195,6.0,9.0,43,0.00,,,0.00,weatherlink.com 1.10,2013-03-15 17:57:00,
2013-03-15 14:12:00,58.0,34.0,30.12,SW,215,3.0,10.0,41,0.00,,,0.00,weatherlink.com 1.10,2013-03-15 18:12:00,
2013-03-15 14:28:00,58.6,35.0,30.12,SSW,208,3.0,7.0,42,0.00,,,0.00,weatherlink.com 1.10,2013-03-15 18:28:00,
2013-03-15 14:42:00,58.5,36.0,30.11,ESE,122,9.0,11.0,44,0.00,,,0.00,weatherlink.com 1.10,2013-03-15 18:42:00,
2013-03-15 14:57:00,59.2,37.0,30.11,SE,136,3.0,8.0,44,0.00,,,0.00,weatherlink.com 1.10,2013-03-15 18:57:00,
2013-03-15 15:12:00,59.5,39.0,30.10,South,175,1.0,9.0,46,0.00,,,0.00,weatherlink.com 1.10,2013-03-15 19:12:00,
2013-03-15 15:27:00,60.0,38.0,30.09,SW,233,6.0,9.0,45,0.00,,,0.00,weatherlink.com 1.10,2013-03-15 19:27:00,
2013-03-15 15:57:00,59.8,40.0,30.07,SSE,149,3.0,9.0,48,0.00,,,0.00,weatherlink.com 1.10,2013-03-15 19:57:00,
2013-03-15 16:12:00,59.9,40.0,30.07,West,271,2.0,9.0,49,0.00,,,0.00,weatherlink.com 1.10,2013-03-15 20:12:00,
2013-03-15 16:28:00,60.1,41.0,30.06,SSE,165,0.0,7.0,49,0.00,,,0.00,weatherlink.com 1.10,2013-03-15 20:28:00,
2013-03-15 16:43:00,60.0,41.0,30.06,SSE,154,6.0,9.0,49,0.00,,,0.00,weatherlink.com 1.10,2013-03-15 20:43:00,
2013-03-15 16:58:00,60.3,41.0,30.05,SSW,212,4.0,9.0,50,0.00,,,0.00,weatherlink.com 1.10,2013-03-15 20:58:00,
2013-03-15 17:13:00,60.4,43.0,30.04,ESE,116,0.0,9.0,53,0.00,,,0.00,weatherlink.com 1.10,2013-03-15 21:13:00,
2013-03-15 17:28:00,61.0,41.0,30.03,SSW,192,2.0,7.0,49,0.00,,,0.00,weatherlink.com 1.10,2013-03-15 21:28:00,
2013-03-15 17:43:00,60.3,41.0,30.03,South,183,2.0,6.0,49,0.00,,,0.00,weatherlink.com 1.10,2013-03-15 21:43:00,
2013-03-15 17:58:00,59.9,43.0,30.03,SSW,203,3.0,4.0,53,0.00,,,0.00,weatherlink.com 1.10,2013-03-15 21:58:00,
2013-03-15 18:13:00,58.9,43.0,30.03,WSW,253,0.0,5.0,55,0.00,,,0.00,weatherlink.com 1.10,2013-03-15 22:13:00,
2013-03-15 18:28:00,58.1,43.0,30.03,SW,228,2.0,5.0,57,0.00,,,0.00,weatherlink.com 1.10,2013-03-15 22:28:00,
2013-03-15 18:43:00,57.6,43.0,30.02,South,187,1.0,7.0,58,0.00,,,0.00,weatherlink.com 1.10,2013-03-15 22:43:00,
2013-03-15 18:58:00,57.3,43.0,30.03,SSW,206,1.0,5.0,60,0.00,,,0.00,weatherlink.com 1.10,2013-03-15 22:58:00,
2013-03-15 19:13:00,56.5,44.0,30.03,SW,217,2.0,4.0,63,0.00,,,0.00,weatherlink.com 1.10,2013-03-15 23:13:00,
2013-03-15 19:28:00,55.5,44.0,30.03,WSW,240,1.0,2.0,66,0.00,,,0.00,weatherlink.com 1.10,2013-03-15 23:28:00,
2013-03-15 19:43:00,54.5,44.0,30.03,SSW,213,0.0,3.0,68,0.00,,,0.00,weatherlink.com 1.10,2013-03-15 23:43:00,
2013-03-15 19:58:00,53.8,43.0,30.03,SW,229,1.0,2.0,68,0.00,,,0.00,weatherlink.com 1.10,2013-03-15 23:58:00,
2013-03-15 20:13:00,53.9,43.0,30.03,SW,236,2.0,3.0,66,0.00,,,0.00,weatherlink.com 1.10,2013-03-16 00:13:00,
2013-03-15 20:28:00,54.0,42.0,30.03,SW,227,0.0,4.0,63,0.00,,,0.00,weatherlink.com 1.10,2013-03-16 00:28:00,
2013-03-15 20:43:00,53.9,41.0,30.03,SW,229,3.0,4.0,63,0.00,,,0.00,weatherlink.com 1.10,2013-03-16 00:43:00,
2013-03-15 20:58:00,53.8,42.0,30.03,SW,216,1.0,7.0,65,0.00,,,0.00,weatherlink.com 1.10,2013-03-16 00:58:00,
2013-03-15 21:13:00,53.3,43.0,30.03,SW,222,2.0,5.0,67,0.00,,,0.00,weatherlink.com 1.10,2013-03-16 01:13:00,
2013-03-15 21:28:00,53.2,43.0,30.03,West,268,2.0,4.0,69,0.00,,,0.00,weatherlink.com 1.10,2013-03-16 01:28:00,
2013-03-15 21:43:00,53.3,43.0,30.03,SW,223,2.0,4.0,69,0.00,,,0.00,weatherlink.com 1.10,2013-03-16 01:43:00,
2013-03-15 21:58:00,53.4,43.0,30.03,WSW,246,3.0,9.0,69,0.00,,,0.00,weatherlink.com 1.10,2013-03-16 01:58:00,
2013-03-15 22:13:00,53.8,43.0,30.03,WSW,256,3.0,5.0,68,0.00,,,0.00,weatherlink.com 1.10,2013-03-16 02:13:00,
2013-03-15 22:28:00,53.8,43.0,30.03,West,267,4.0,8.0,68,0.00,,,0.00,weatherlink.com 1.10,2013-03-16 02:28:00,
2013-03-15 22:43:00,53.8,43.0,30.02,WSW,243,2.0,4.0,68,0.00,,,0.00,weatherlink.com 1.10,2013-03-16 02:43:00,
2013-03-15 22:58:00,53.9,43.0,30.02,WSW,240,2.0,7.0,68,0.00,,,0.00,weatherlink.com 1.10,2013-03-16 02:58:00,
2013-03-15 23:13:00,54.0,44.0,30.02,SW,234,2.0,6.0,68,0.00,,,0.00,weatherlink.com 1.10,2013-03-16 03:13:00,
2013-03-15 23:28:00,54.3,44.0,30.02,WSW,248,4.0,7.0,68,0.00,,,0.00,weatherlink.com 1.10,2013-03-16 03:28:00,
2013-03-15 23:43:00,54.4,44.0,30.02,West,271,6.0,7.0,69,0.00,,,0.00,weatherlink.com 1.10,2013-03-16 03:43:00,
2013-03-15 23:58:00,54.4,45.0,30.02,WSW,240,3.0,6.0,70,0.00,,,0.00,weatherlink.com 1.10,2013-03-16 03:58:00,